Find ICEYE-X30

NORAD ID: 56947 Int'l Des: 2023-084 Owner: ICEUS Country: US Constellation: iceye operational
LEOCIRCULARRETROGRADE

リアルタイム位置

3D地球を読み込み中...

ICEYE-X30について

説明を読み込み中...

次回通過

Passes for default location (London). Set your location on the main map for personalized predictions.

高度履歴

Loading altitude history...

軌道要素

1 56947U 23084R 26136.19801930 .00938729 46684-3 13938-2 0 9992
2 56947 97.5579 294.4453 0007193 281.3123 78.7349 16.04942859163901
Epoch: May 16, 2026 • Age: 10 hours

現在のステータス

高度 264.3 km
速度 7.75 km/s
衛星直下点 22.76°N, 28.04°E
打ち上げ日 Jun 12, 2023
運用期間 2.9 years
タイプ earth observation

技術仕様

分類 Payload
質量 90.00 kg
乾燥質量 89.00 kg
総質量 90.00 kg
長さ 0.70 m
直径 0.50 m
スパン 3.25 m
形状 Box + pan
製造者 ICEYE
バスタイプ ICEYE
フェーズステータス In Orbit
所有者/国 ICEUS/US

Most Searched